DHK053 EBBR-EGNX

Flight info

Callsign DHK053
Flight time 0h 48m
Altitude 38000
Route DENUT L610 HEMEL
Aircraft B77L/H-SDE1E2E3FGHIJ2J3J4J5M1RWXY/LB1D1

Departure

Time 2026-05-04 21:50
Airport Brussels Airport (EBBR)

Arrival

Time 2026-05-04 22:38
Airport East Midlands Airport (EGNX)
Time Latitude Longitude Altitude Speed Heading
2026-05-04 21:30 50.90446 4.46363 133 ft 0 kts 338°
2026-05-04 21:40 50.90444 4.46364 136 ft 2 kts 338°
2026-05-04 21:40 50.90420 4.46380 136 ft 4 kts 334°
2026-05-04 21:41 50.90396 4.46399 136 ft 4 kts 335°
2026-05-04 21:41 50.90377 4.46412 136 ft 4 kts
2026-05-04 21:41 50.90363 4.46404 136 ft 4 kts 58°
2026-05-04 21:41 50.90353 4.46366 137 ft 4 kts 76°
2026-05-04 21:42 50.90352 4.46357 137 ft 0 kts 77°
2026-05-04 21:44 50.90354 4.46376 137 ft 5 kts 78°
2026-05-04 21:44 50.90360 4.46442 136 ft 7 kts 84°
2026-05-04 21:44 50.90354 4.46525 133 ft 0 kts 110°
2026-05-04 21:45 50.90343 4.46567 130 ft 16 kts 114°
2026-05-04 21:45 50.90288 4.46744 128 ft 19 kts 116°
2026-05-04 21:45 50.90227 4.46939 131 ft 20 kts 117°
2026-05-04 21:46 50.90177 4.47148 126 ft 21 kts 87°
2026-05-04 21:46 50.90231 4.47364 123 ft 21 kts 65°
2026-05-04 21:46 50.90293 4.47579 123 ft 22 kts 65°
2026-05-04 21:46 50.90355 4.47795 122 ft 22 kts 65°
2026-05-04 21:47 50.90418 4.48012 121 ft 22 kts 65°
2026-05-04 21:47 50.90481 4.48229 123 ft 22 kts 65°
2026-05-04 21:47 50.90543 4.48445 123 ft 22 kts 66°
2026-05-04 21:47 50.90606 4.48662 121 ft 22 kts 65°
2026-05-04 21:48 50.90669 4.48878 121 ft 22 kts 65°
2026-05-04 21:48 50.90731 4.49093 121 ft 22 kts 67°
2026-05-04 21:48 50.90793 4.49311 123 ft 22 kts 65°
2026-05-04 21:48 50.90855 4.49524 125 ft 22 kts 66°
2026-05-04 21:49 50.90917 4.49744 125 ft 22 kts 65°
2026-05-04 21:49 50.91026 4.49905 121 ft 22 kts 27°
2026-05-04 21:49 50.91134 4.49911 119 ft 10 kts 307°
2026-05-04 21:49 50.91121 4.49818 120 ft 10 kts 243°
2026-05-04 21:50 50.91064 4.49627 121 ft 52 kts 245°
2026-05-04 21:50 50.90731 4.48493 165 ft 169 kts 245°
2026-05-04 21:50 50.90169 4.46640 1272 ft 197 kts 246°
2026-05-04 21:50 50.89593 4.44631 2634 ft 205 kts 252°
2026-05-04 21:51 50.89328 4.42315 3381 ft 225 kts 275°
2026-05-04 21:51 50.89777 4.39855 4092 ft 245 kts 299°
2026-05-04 21:51 50.90608 4.37356 4928 ft 262 kts 299°
2026-05-04 21:51 50.91463 4.34761 6166 ft 268 kts 299°
2026-05-04 21:52 50.92220 4.32045 7213 ft 275 kts 287°
2026-05-04 21:52 50.92619 4.29030 8308 ft 281 kts 284°
2026-05-04 21:52 50.93364 4.26180 9355 ft 284 kts 304°
2026-05-04 21:52 50.93867 4.25043 9858 ft 287 kts 308°
2026-05-04 21:53 50.93927 4.24917 9910 ft 288 kts 308°
2026-05-04 21:53 50.95216 4.22412 10817 ft 303 kts 311°
2026-05-04 21:53 50.96675 4.19701 11241 ft 336 kts 311°
2026-05-04 21:53 50.98213 4.16814 11929 ft 355 kts 310°
2026-05-04 21:54 50.99804 4.13765 13068 ft 361 kts 310°
2026-05-04 21:54 51.01396 4.10660 14230 ft 366 kts 309°
2026-05-04 21:54 51.03002 4.07483 15306 ft 371 kts 309°
2026-05-04 21:54 51.04623 4.04249 16346 ft 377 kts 308°
2026-05-04 21:55 51.06268 4.00945 17378 ft 384 kts 308°
2026-05-04 21:55 51.07893 3.97674 18345 ft 390 kts 308°
2026-05-04 21:55 51.09583 3.94262 19230 ft 395 kts 308°
2026-05-04 21:55 51.11291 3.90810 20171 ft 400 kts 308°
2026-05-04 21:56 51.13022 3.87306 21087 ft 404 kts 307°
2026-05-04 21:56 51.14774 3.83757 21985 ft 410 kts 308°
2026-05-04 21:56 51.16545 3.80163 22846 ft 415 kts 307°
2026-05-04 21:56 51.18339 3.76521 23749 ft 419 kts 307°
2026-05-04 21:57 51.20144 3.72844 24512 ft 424 kts 307°
2026-05-04 21:57 51.21971 3.69128 25235 ft 428 kts 307°
2026-05-04 21:57 51.23613 3.65178 25842 ft 431 kts 293°
2026-05-04 21:57 51.24450 3.60582 26405 ft 433 kts 279°
2026-05-04 21:58 51.24979 3.55824 27064 ft 438 kts 279°
2026-05-04 21:58 51.25555 3.51011 27744 ft 443 kts 280°
2026-05-04 21:58 51.26177 3.46164 28495 ft 447 kts 280°
2026-05-04 21:58 51.26809 3.41349 29193 ft 451 kts 281°
2026-05-04 21:59 51.27459 3.36411 29862 ft 456 kts 281°
2026-05-04 21:59 51.28108 3.31438 30443 ft 459 kts 280°
2026-05-04 21:59 51.28757 3.26445 31229 ft 457 kts 280°
2026-05-04 21:59 51.29398 3.21492 32136 ft 451 kts 280°
2026-05-04 22:00 51.30028 3.16611 33062 ft 446 kts 279°
2026-05-04 22:00 51.30647 3.11792 33977 ft 440 kts 279°
2026-05-04 22:00 51.31251 3.07067 34593 ft 439 kts 279°
2026-05-04 22:00 51.31862 3.02276 35022 ft 442 kts 279°
2026-05-04 22:01 51.32456 2.97592 35445 ft 444 kts 279°
2026-05-04 22:01 51.33071 2.92733 35911 ft 446 kts 279°
2026-05-04 22:01 51.33689 2.87835 36018 ft 452 kts 279°
2026-05-04 22:02 51.34929 2.77981 36072 ft 456 kts 279°
2026-05-04 22:02 51.35550 2.72997 36386 ft 459 kts 279°
2026-05-04 22:02 51.36167 2.67986 36857 ft 458 kts 279°
2026-05-04 22:02 51.36780 2.62976 37328 ft 458 kts 279°
2026-05-04 22:03 51.37389 2.57972 37812 ft 458 kts 279°
2026-05-04 22:03 51.37997 2.52963 38039 ft 461 kts 279°
2026-05-04 22:03 51.38609 2.47902 38028 ft 464 kts 279°
2026-05-04 22:04 51.39817 2.37876 38020 ft 458 kts 279°
2026-05-04 22:04 51.41017 2.27855 38033 ft 459 kts 279°
2026-05-04 22:05 51.42233 2.17801 38033 ft 460 kts 279°
2026-05-04 22:05 51.43465 2.07738 38034 ft 461 kts 279°
2026-05-04 22:06 51.44668 1.97787 38038 ft 461 kts 278°
2026-05-04 22:06 51.45862 1.87740 38042 ft 462 kts 279°
2026-05-04 22:07 51.47033 1.77610 38031 ft 462 kts 278°
2026-05-04 22:07 51.48189 1.67466 38036 ft 462 kts 278°
2026-05-04 22:08 51.49342 1.57309 38034 ft 462 kts 278°
2026-05-04 22:08 51.50485 1.47178 38036 ft 461 kts 278°
2026-05-04 22:09 51.51620 1.37044 38034 ft 461 kts 278°
2026-05-04 22:09 51.52746 1.26913 38045 ft 461 kts 278°
2026-05-04 22:10 51.53850 1.16916 38033 ft 446 kts 278°
2026-05-04 22:10 51.54912 1.07211 37945 ft 441 kts 278°
2026-05-04 22:10 51.55441 1.02379 37479 ft 437 kts 278°
2026-05-04 22:11 51.55945 0.97750 37010 ft 434 kts 278°
2026-05-04 22:11 51.56459 0.92994 36540 ft 431 kts 278°
2026-05-04 22:11 51.56966 0.88270 36090 ft 427 kts 278°
2026-05-04 22:11 51.57465 0.83593 35686 ft 422 kts 278°
2026-05-04 22:12 51.57957 0.78968 35295 ft 418 kts 278°
2026-05-04 22:12 51.58443 0.74390 34899 ft 414 kts 278°
2026-05-04 22:12 51.58923 0.69854 34511 ft 409 kts 278°
2026-05-04 22:12 51.59392 0.65410 33949 ft 398 kts 277°
2026-05-04 22:13 51.59864 0.61051 33000 ft 394 kts 278°
2026-05-04 22:13 51.60377 0.56748 32184 ft 388 kts 278°
2026-05-04 22:13 51.60837 0.52565 31791 ft 372 kts 277°
2026-05-04 22:13 51.61249 0.48538 31377 ft 358 kts 276°
2026-05-04 22:14 51.61640 0.44641 31008 ft 351 kts 275°
2026-05-04 22:14 51.62029 0.40742 30661 ft 356 kts 275°
2026-05-04 22:14 51.62430 0.36726 30295 ft 371 kts 275°
2026-05-04 22:14 51.62847 0.32559 29838 ft 381 kts 275°
2026-05-04 22:15 51.63274 0.28348 29353 ft 380 kts 275°
2026-05-04 22:15 51.63700 0.24159 28942 ft 377 kts 276°
2026-05-04 22:15 51.64118 0.20022 28525 ft 373 kts 276°
2026-05-04 22:15 51.64664 0.15951 28118 ft 372 kts 282°
2026-05-04 22:16 51.65474 0.12007 27714 ft 371 kts 289°
2026-05-04 22:16 51.66493 0.08263 27319 ft 369 kts 291°
2026-05-04 22:16 51.67562 0.04523 26922 ft 366 kts 291°
2026-05-04 22:16 51.68629 0.00814 26527 ft 364 kts 292°
2026-05-04 22:17 51.69658 -0.02778 26154 ft 362 kts 291°
2026-05-04 22:17 51.70705 -0.06461 25769 ft 360 kts 291°
2026-05-04 22:17 51.71739 -0.10121 25393 ft 358 kts 291°
2026-05-04 22:17 51.72764 -0.13770 25011 ft 357 kts 291°
2026-05-04 22:18 51.73787 -0.17419 24642 ft 356 kts 291°
2026-05-04 22:18 51.74803 -0.21048 24265 ft 354 kts 292°
2026-05-04 22:18 51.75815 -0.24674 23898 ft 354 kts 292°
2026-05-04 22:18 51.76823 -0.28291 23497 ft 353 kts 292°
2026-05-04 22:19 51.77830 -0.31908 23066 ft 352 kts 292°
2026-05-04 22:19 51.78830 -0.35504 22660 ft 350 kts 292°
2026-05-04 22:19 51.79824 -0.39074 22271 ft 346 kts 294°
2026-05-04 22:19 51.81177 -0.42256 21911 ft 344 kts 314°
2026-05-04 22:20 51.83093 -0.44537 21629 ft 342 kts 327°
2026-05-04 22:20 51.85151 -0.46535 21334 ft 349 kts 328°
2026-05-04 22:20 51.87264 -0.48535 21021 ft 352 kts 328°
2026-05-04 22:20 51.89381 -0.50538 20697 ft 352 kts 328°
2026-05-04 22:21 51.91450 -0.52514 20371 ft 350 kts 328°
2026-05-04 22:21 51.93544 -0.54531 20080 ft 348 kts 327°
2026-05-04 22:21 51.95619 -0.56544 19774 ft 347 kts 327°
2026-05-04 22:21 51.97679 -0.58551 19464 ft 345 kts 327°
2026-05-04 22:22 51.99729 -0.60555 19163 ft 342 kts 327°
2026-05-04 22:22 52.01755 -0.62541 18856 ft 340 kts 327°
2026-05-04 22:22 52.03773 -0.64523 18562 ft 338 kts 327°
2026-05-04 22:22 52.05775 -0.66490 18249 ft 335 kts 327°
2026-05-04 22:23 52.07766 -0.68450 17920 ft 333 kts 327°
2026-05-04 22:23 52.09736 -0.70390 17611 ft 330 kts 327°
2026-05-04 22:23 52.11029 -0.71666 17408 ft 328 kts 327°
2026-05-04 22:23 52.12973 -0.73585 17112 ft 325 kts 327°
2026-05-04 22:24 52.14898 -0.75487 16826 ft 322 kts 327°
2026-05-04 22:24 52.16804 -0.77373 16546 ft 319 kts 327°
2026-05-04 22:24 52.18689 -0.79240 16266 ft 316 kts 327°
2026-05-04 22:24 52.20566 -0.81099 15985 ft 314 kts 327°
2026-05-04 22:25 52.22421 -0.82939 15709 ft 311 kts 327°
2026-05-04 22:25 52.24264 -0.84768 15435 ft 309 kts 327°
2026-05-04 22:25 52.26096 -0.86584 15166 ft 307 kts 327°
2026-05-04 22:25 52.27918 -0.88387 14894 ft 305 kts 327°
2026-05-04 22:26 52.29733 -0.90183 14627 ft 304 kts 327°
2026-05-04 22:26 52.31541 -0.91975 14357 ft 303 kts 327°
2026-05-04 22:26 52.33313 -0.93734 14078 ft 302 kts 327°
2026-05-04 22:26 52.35107 -0.95515 13821 ft 301 kts 327°
2026-05-04 22:27 52.36898 -0.97295 13528 ft 300 kts 327°
2026-05-04 22:27 52.38686 -0.99074 13245 ft 299 kts 327°
2026-05-04 22:27 52.40473 -1.00530 12953 ft 296 kts 344°
2026-05-04 22:27 52.42536 -1.00742 12714 ft 302 kts
2026-05-04 22:28 52.44589 -0.99931 12457 ft 306 kts 14°
2026-05-04 22:28 52.46643 -0.99029 12168 ft 307 kts 14°
2026-05-04 22:28 52.48702 -0.98073 11902 ft 308 kts 14°
2026-05-04 22:28 52.50760 -0.97125 11631 ft 305 kts 14°
2026-05-04 22:29 52.52791 -0.96212 11354 ft 299 kts 13°
2026-05-04 22:29 52.54786 -0.95328 10998 ft 295 kts 13°
2026-05-04 22:29 52.56763 -0.94456 10512 ft 297 kts 13°
2026-05-04 22:29 52.58779 -0.93725 10045 ft 296 kts
2026-05-04 22:30 52.60827 -0.93448 9527 ft 293 kts
2026-05-04 22:30 52.62808 -0.93295 8991 ft 283 kts
2026-05-04 22:30 52.64748 -0.93160 8438 ft 267 kts
2026-05-04 22:30 52.66525 -0.93042 7923 ft 253 kts
2026-05-04 22:31 52.68269 -0.92932 7539 ft 246 kts
2026-05-04 22:31 52.69953 -0.92830 7075 ft 239 kts
2026-05-04 22:31 52.71606 -0.92734 6562 ft 236 kts
2026-05-04 22:31 52.73260 -0.92646 6100 ft 237 kts
2026-05-04 22:32 52.74874 -0.92783 5726 ft 230 kts 347°
2026-05-04 22:32 52.76412 -0.93523 5349 ft 230 kts 342°
2026-05-04 22:32 52.77918 -0.94403 5011 ft 228 kts 341°
2026-05-04 22:32 52.79383 -0.95288 4807 ft 219 kts 341°
2026-05-04 22:33 52.80785 -0.96147 4613 ft 211 kts 340°
2026-05-04 22:33 52.82127 -0.97024 4314 ft 204 kts 331°
2026-05-04 22:33 52.83132 -0.98647 3873 ft 206 kts 304°
2026-05-04 22:33 52.83603 -1.00853 3439 ft 207 kts 275°
2026-05-04 22:34 52.83608 -1.03234 3061 ft 207 kts 272°
2026-05-04 22:34 52.83589 -1.05598 2788 ft 202 kts 271°
2026-05-04 22:34 52.83551 -1.07843 2672 ft 189 kts 271°
2026-05-04 22:34 52.83512 -1.09937 2591 ft 174 kts 271°
2026-05-04 22:35 52.83477 -1.11850 2327 ft 163 kts 271°
2026-05-04 22:35 52.83445 -1.13643 2089 ft 147 kts 270°
2026-05-04 22:35 52.83416 -1.15304 2044 ft 146 kts 270°
2026-05-04 22:35 52.83381 -1.16979 2027 ft 146 kts 270°
2026-05-04 22:36 52.83341 -1.18695 1843 ft 150 kts 270°
2026-05-04 22:36 52.83314 -1.20412 1596 ft 149 kts 270°
2026-05-04 22:36 52.83288 -1.22111 1348 ft 145 kts 269°
2026-05-04 22:36 52.83259 -1.23753 1120 ft 143 kts 269°
2026-05-04 22:37 52.83232 -1.25390 939 ft 142 kts 268°
2026-05-04 22:37 52.83198 -1.27023 774 ft 142 kts 268°
2026-05-04 22:37 52.83172 -1.28668 595 ft 144 kts 268°
2026-05-04 22:37 52.83142 -1.30312 407 ft 145 kts 267°
2026-05-04 22:38 52.83110 -1.31946 312 ft 135 kts 268°
2026-05-04 22:38 52.83089 -1.33156 311 ft 68 kts 269°
2026-05-04 22:38 52.83078 -1.33902 308 ft 62 kts 268°
2026-05-04 22:38 52.83067 -1.34417 304 ft 31 kts 270°
2026-05-04 22:39 52.83035 -1.34652 307 ft 11 kts 212°
2026-05-04 22:39 52.82937 -1.34672 307 ft 15 kts 197°
2026-05-04 22:39 52.82900 -1.34804 310 ft 19 kts 267°
2026-05-04 22:39 52.82899 -1.34849 310 ft 0 kts 267°
2026-05-04 22:40 52.82899 -1.34855 310 ft 1 kts 267°
2026-05-04 22:40 52.82898 -1.34903 310 ft 10 kts 267°
2026-05-04 22:40 52.82895 -1.35039 308 ft 13 kts 269°
2026-05-04 22:41 52.82888 -1.35220 310 ft 17 kts 251°
2026-05-04 22:41 52.82830 -1.35234 307 ft 9 kts 133°
2026-05-04 22:41 52.82810 -1.35135 307 ft 9 kts 132°
2026-05-04 22:41 52.82780 -1.35118 307 ft 4 kts 173°
2026-05-04 22:42 52.82753 -1.35115 305 ft 2 kts 177°
2026-05-04 22:42 52.82742 -1.35114 305 ft 1 kts 177°